Regional Weather Roundup
Issued by NWS Cleveland, OH

Home | Current Version | Previous Version | Text Only | Print | Product List | Glossary Off
Versions: 1 2 3 4 5 6 7 8 9 10 11 12 13 14 15 16 17 18 19 20 21 22 23 24 25 26 27 28 29 30 31 32 33 34 35 36 37 38 39 40 41 42 43 44 45 46 47 48 49 50

000
ASUS41 KCLE 051502
RWRCLE
OHIO REGIONAL WEATHER ROUNDUP
NATIONAL WEATHER SERVICE CLEVELAND, OH
1100 AM EDT SAT SEP 05 2015

NOTE: "FAIR" INDICATES FEW OR NO CLOUDS BELOW 12,000 FEET WITH NO
SIGNIFICANT WEATHER AND/OR OBSTRUCTIONS TO VISIBILITY.

OHZ001>008-015>018-024>027-034-035-043-044-051600-
   NORTHWEST OHIO

CITY           SKY/WX    TMP DP  RH WIND       PRES   REMARKS
DEFIANCE       CLOUDY    73  64  73 SE6       30.19R
FINDLAY        LGT RAIN  69  66  90 SW5       30.18F
TOLEDO EXPRESS CLOUDY    69  66  90 VRB7      30.18R
TOLEDO EXEC    LGT RAIN  68  65  90 S12       30.18F
LIMA           PTSUNNY   70  65  84 SE6       30.19R
$$

OHZ009>014-019>023-028>033-038-089-051600-
   NORTHEAST OHIO

CITY           SKY/WX    TMP DP  RH WIND       PRES   REMARKS
CLE-HOPKINS    MOSUNNY   77  65  66 S5        30.19S
CLE-LAKEFRONT  SUNNY     76  66  71 NW3       30.16F
CUY CO. ARPT   MOSUNNY   81  68  65 S6        30.19F
LORAIN-ELYRIA  MOSUNNY   76  66  71 S6        30.18S
ASHTABULA      MOSUNNY   78  67  68 S7        30.20S
AKRON-CANTON   MOSUNNY   79  65  62 VRB3      30.20F
WOOSTER        SUNNY     78  62  57 CALM      30.21R
MANSFIELD      SUNNY     78  64  61 N6        30.21R
YOUNGSTOWN     MOSUNNY   78  67  68 SE8       30.20F
$$

OHZ042-051>053-060>062-070>072-077>081-051600-
  SOUTHWEST OHIO

CITY           SKY/WX    TMP DP  RH WIND       PRES   REMARKS
CINC-COVINGTON PTSUNNY   80  64  58 CALM      30.17R
CINC-LUNKEN    SUNNY     78  69  73 CALM      30.17R
HAMILTON       SUNNY     79  67  66 CALM      30.18R
DAYTON         MOSUNNY   80  63  55 E3        30.20R
WRIGHT-PAT AFB NOT AVBL
DAYTON GENERAL SUNNY     79  64  60 E3        30.18R
WILMINGTON     SUNNY     79  65  62 E3        30.18S
$$

OHZ036-037-039>041-045>050-054>059-063>069-073>076-082>088-051600-
  CENTRAL AND SOUTHEAST OHIO

CITY           SKY/WX    TMP DP  RH WIND       PRES   REMARKS
COLUMBUS       MOSUNNY   79  65  62 CALM      30.19R
OSU AIRPORT    SUNNY     80  65  59 N3        30.20R
BOLTON FIELD   SUNNY     77  66  69 CALM      30.19S
RICKENBACK AFB SUNNY     76  67  72 CALM      30.18S
NEWARK         SUNNY     77  66  68 CALM      30.19S
MARION         MOSUNNY   77  64  64 CALM      30.21S
LANCASTER      SUNNY     77  67  71 S6        30.19S
ZANESVILLE     SUNNY     79  68  69 CALM      30.19S
NEW PHILLY     SUNNY     77  67  71 S3        30.20S
$$



USA.gov is the U.S. government's official web portal to all federal, state and local government web resources and services.